FW1564 Weather Reports


time (UTC)temp
C
wind
direction
speed
KPH
gust
KPH
rain 1hr
cm
rain 24hr
cm
rain mn
cm
humidity
%
barometer
mb
20260502202930 13 342 1.6 3.2 0.00 0.00 0.00 91 1018.2
20260502202415 14 26 0.0 1.6 0.00 0.00 0.00 91 1017.8
20260502200931 14 57 0.0 1.6 0.00 0.00 0.00 90 1017.8
20260502195930 14 121 0.0 1.6 0.00 0.00 0.00 90 1017.8
20260502194934 14 121 0.0 1.6 0.00 0.00 0.00 90 1017.7
20260502193930 15 121 0.0 1.6 0.00 0.00 0.00 90 1017.5
20260502192930 15 135 0.0 4.8 0.00 0.00 0.00 90 1017.7
20260502191929 15 102 0.0 4.8 0.00 0.00 0.00 90 1017.7
20260502190929 15 174 3.2 6.4 0.00 0.00 0.00 89 1017.7
20260502185930 15 155 3.2 9.7 0.00 0.00 0.00 88 1017.5
20260502184931 15 130 4.8 6.4 0.00 0.00 0.00 88 1017.7
20260502183931 15 118 3.2 9.7 0.00 0.00 0.00 87 1017.8
20260502183411 15 133 0.0 6.4 0.00 0.00 0.00 86 1017.7
20260502181931 15 101 1.6 6.4 0.00 0.00 0.00 85 1017.6
20260502180930 15 164 6.4 11.3 0.00 0.00 0.00 85 1017.8
20260502163919 16 107 6.4 11.3 0.00 0.00 0.00 82 1018.0
20260502163852 16 148 8.0 11.3 0.00 0.00 0.00 81 1018.3
20260502161919 17 119 6.4 12.9 0.00 0.00 0.00 78 1018.1
20260502160920 17 136 4.8 14.5 0.00 0.00 0.00 80 1018.0
20260502151920 17 119 4.8 11.3 0.00 0.00 0.00 80 1017.9
20260502150919 16 147 6.4 12.9 0.00 0.00 0.00 82 1018.3
20260502122920 16 121 1.6 12.9 0.00 0.00 0.00 82 1019.0
20260502122836 16 152 6.4 16.1 0.00 0.00 0.00 81 1018.9
20260502120920 16 129 1.6 12.9 0.00 0.00 0.00 82 1018.8
20260502115919 16 118 1.6 11.3 0.00 0.00 0.00 82 1018.9
20260502114920 16 145 3.2 12.9 0.00 0.00 0.00 80 1018.9
20260502113921 16 235 3.2 14.5 0.00 0.00 0.00 79 1019.1
20260502112920 16 211 3.2 11.3 0.00 0.00 0.00 80 1019.4
20260502111920 16 126 6.4 9.7 0.00 0.00 0.00 79 1019.1
20260502110919 16 149 6.4 11.3 0.00 0.00 0.00 78 1019.2
20260502105920 16 74 3.2 11.3 0.00 0.00 0.00 78 1019.0
20260502105401 17 108 6.4 14.5 0.00 0.00 0.00 77 1019.1
20260502103919 17 153 4.8 12.9 0.00 0.00 0.00 69 1019.4
20260502102920 17 115 3.2 12.9 0.00 0.00 0.00 69 1019.2
20260502101921 17 191 4.8 11.3 0.00 0.00 0.00 68 1019.2
20260502101404 17 191 4.8 11.3 0.00 0.00 0.00 68 1019.1
20260502090920 16 105 1.6 9.7 0.00 0.00 0.00 66 1018.7
20260502090404 16 84 1.6 4.8 0.00 0.00 0.00 67 1018.6
20260502070919 12 334 4.8 9.7 0.00 0.00 0.00 74 1018.4
20260502065918 12 351 6.4 11.3 0.00 0.00 0.00 72 1018.3
20260502065404 12 327 6.4 11.3 0.00 0.00 0.00 72 1018.3
20260502063919 12 346 6.4 11.3 0.00 0.00 0.00 72 1018.2
20260502062921 12 341 4.8 11.3 0.00 0.00 0.00 73 1018.3
20260502061919 12 354 4.8 11.3 0.00 0.00 0.00 73 1018.0
20260502061351 12 346 6.4 12.9 0.00 0.00 0.00 73 1017.9
20260502055921 12 352 6.4 11.3 0.00 0.00 0.00 73 1017.7
20260502054920 12 13 4.8 9.7 0.00 0.00 0.00 74 1017.7
20260502053919 12 343 4.8 11.3 0.00 0.00 0.00 74 1017.8
20260502052920 12 351 6.4 9.7 0.00 0.00 0.00 74 1017.9
20260502051919 12 350 8.0 11.3 0.00 0.00 0.00 71 1017.9
20260502050920 12 349 6.4 11.3 0.00 0.00 0.00 71 1018.0
20260502045920 12 357 6.4 11.3 0.00 0.00 0.00 73 1017.9
20260502044918 12 343 8.0 11.3 0.00 0.00 0.00 73 1017.7
20260502043920 12 336 6.4 11.3 0.00 0.00 0.00 72 1017.8
20260502042919 12 355 4.8 11.3 0.00 0.00 0.00 73 1018.0
20260502041919 12 340 4.8 11.3 0.00 0.00 0.00 72 1017.8
20260502040920 12 332 3.2 9.7 0.00 0.00 0.00 73 1017.7
20260502035920 12 347 6.4 11.3 0.00 0.00 0.00 74 1017.9
20260502034920 12 346 6.4 11.3 0.00 0.00 0.00 71 1017.9
20260502033918 12 354 6.4 9.7 0.00 0.00 0.00 71 1018.1
20260502032920 13 348 8.0 11.3 0.00 0.00 0.00 71 1017.9
20260502031918 13 16 8.0 12.9 0.00 0.00 0.00 72 1018.0
20260502030925 13 7 8.0 11.3 0.00 0.00 0.00 72 1018.0
20260502025920 13 346 6.4 11.3 0.00 0.00 0.00 72 1018.0
20260502024919 13 327 6.4 9.7 0.00 0.00 0.00 73 1018.2
20260502023920 13 327 6.4 11.3 0.00 0.00 0.00 72 1018.2
20260502022920 13 319 6.4 9.7 0.00 0.00 0.00 74 1018.1
20260502021918 13 343 9.7 11.3 0.00 0.03 0.00 75 1018.2
20260502021401 13 339 8.0 11.3 0.00 0.03 0.00 75 1018.3
20260502015919 13 349 8.0 11.3 0.00 0.05 0.00 74 1018.5
20260502014921 13 337 6.4 9.7 0.00 0.05 0.00 74 1018.6
20260502013907 13 351 6.4 11.3 0.00 0.05 0.00 74 1018.7
20260502012842 13 343 6.4 11.3 0.00 0.05 0.00 74 1018.9
20260502012323 13 342 6.4 11.3 0.00 0.05 0.00 74 1018.7
20260502010842 13 338 8.0 11.3 0.00 0.05 0.00 75 1019.0
20260502005841 13 3 6.4 11.3 0.00 0.05 0.00 75 1018.9
20260502004843 13 355 6.4 9.7 0.00 0.05 0.00 75 1018.8
20260502003843 13 354 4.8 6.4 0.00 0.05 0.00 76 1018.8
20260502002843 13 354 3.2 6.4 0.00 0.05 0.00 77 1019.1
20260502002322 12 338 4.8 6.4 0.00 0.05 0.00 81 1019.5
20260502001807 13 349 3.2 6.4 0.00 0.05 0.00 79 1019.2
20260501235842 13 345 4.8 9.7 0.00 0.08 0.00 77 1019.4
20260501234842 13 344 6.4 9.7 0.00 0.08 0.00 78 1019.4
20260501233842 13 338 3.2 6.4 0.00 0.08 0.00 82 1019.6
20260501232843 13 347 4.8 6.4 0.00 0.08 0.00 83 1019.4
20260501231842 13 339 3.2 4.8 0.00 0.08 0.00 82 1019.4
20260501230842 13 334 1.6 4.8 0.00 0.08 0.00 81 1019.6
20260501225843 13 353 3.2 4.8 0.00 0.08 0.08 84 1019.5
20260501224843 13 351 1.6 4.8 0.00 0.08 0.08 83 1019.8
20260501223842 13 336 1.6 4.8 0.00 0.08 0.08 82 1019.7
20260501222843 13 342 1.6 4.8 0.00 0.08 0.08 81 1019.7
20260501221841 13 353 3.2 6.4 0.00 0.08 0.08 81 1019.8
20260501221801 13 346 4.8 6.4 0.00 0.08 0.08 82 1019.6
20260501220806 13 351 3.2 4.8 0.00 0.08 0.08 83 1019.5
20260501214842 13 341 1.6 6.4 0.00 0.08 0.08 83 1019.7
20260501213842 13 344 3.2 4.8 0.00 0.08 0.08 83 1019.1
20260501212843 13 341 1.6 4.8 0.00 0.08 0.08 83 1019.1
20260501211842 13 343 3.2 4.8 0.00 0.08 0.08 85 1019.0
20260501210841 13 3 3.2 4.8 0.00 0.08 0.08 86 1018.9
20260501205842 13 344 3.2 6.4 0.00 0.08 0.08 86 1018.6
20260501204842 13 345 3.2 4.8 0.00 0.08 0.08 86 1018.7
20260501203842 13 348 3.2 4.8 0.00 0.08 0.08 86 1018.7